Regional Weather Roundup
Issued by NWS Upton, NY

Current Version | Previous Version | Text Only | Print | Product List | Glossary Off
Versions: 1 2 3 4 5 6 7 8 9 10 11 12 13 14 15 16 17 18 19 20 21 22 23 24 25 26 27 28
000 ASUS41 KOKX 240809 RWROKX REGIONAL WEATHER ROUNDUP NATIONAL WEATHER SERVICE NEW YORK NY 400 AM EDT MON JUL 24 2017 NOTE: "FAIR" INDICATES FEW OR NO CLOUDS BELOW 12,000 FEET WITH NO SIGNIFICANT WEATHER AND/OR OBSTRUCTIONS TO VISIBILITY. NYZ071-072-176-178-NJZ106-104-240900- NEW YORK CITY METRO AREA CITY SKY/WX TMP DP RH WIND PRES REMARKS Central Park CLOUDY 72 65 78 E7 29.82F Bronx Bot Gard N/A 70 64 83 N6 29.82S LaGuardia APRT CLOUDY 72 68 87 E9 29.79S Kennedy INTL LGT RAIN 72 68 87 E14 29.80F Breezy Point N/A 70 N/A N/A E16G23 N/A Newark/Liberty CLOUDY 74 65 73 E14G21 29.77F Teterboro CLOUDY 72 67 84 E6 29.78F $$ NYZ177-179-078>081-240900- LONG ISLAND NEW YORK CITY SKY/WX TMP DP RH WIND PRES REMARKS Jones Beach N/A 70 N/A N/A E13G20 N/A Matinecock PT N/A 70 N/A N/A E16 N/A Farmingdale CLOUDY 70 66 87 E12 29.81F MacArthur/ISP LGT RAIN 69 68 96 E10 29.81F Shirley LGT RAIN 69 68 96 VRB5 29.83F Mt Sinai Harb N/A N/A N/A N/A E9G16 N/A Westhampton LGT RAIN 69 64 84 E8 N/A East Hampton LGT RAIN 67 63 87 E6 29.86S Montauk N/A 68 62 81 E7 29.88F $$ NYZ052-065-067-240900- HUDSON VALLEY CITY SKY/WX TMP DP RH WIND PRES REMARKS White Plains NOT AVBL Larchmont Harb N/A 70 N/A N/A NE21 N/A Croton O-T Hud N/A 66 N/A N/A NE5 N/A Newburgh CLOUDY 66 64 94 E14 29.85F Montgomery CLOUDY 67 64 90 NE5 29.82F Poughkeepsie CLOUDY 65 60 84 NE6 29.83F Albany CLOUDY 64 61 90 CALM 29.86S $$ NJZ001-105-106-008-010-013-015-019>022-104-240900- NEW JERSEY CITY SKY/WX TMP DP RH WIND PRES REMARKS Newark/Liberty CLOUDY 74 65 73 E14G21 29.77F Teterboro CLOUDY 72 67 84 E6 29.78F Caldwell CLOUDY 69 32 25 E7 29.79F Somerville RAIN 71 67 87 E3 29.75F FOG Linden CLOUDY 73 65 75 SE12 29.78F Perth Amboy N/A 72 N/A N/A E17G24 N/A Sussex CLOUDY 70 67 90 E6 29.79F Andover N/A 69 65 86 S5 29.78F Trenton HVY RAIN 70 69 97 E7 29.75F FOG Millville LGT RAIN 72 72 100 NE9 29.74S Atlantic City TSTM 74 73 97 NW9 29.76R FOG Wrightstown TSTM 72 70 94 SE1 29.73F Toms River LGT RAIN 72 71 97 NE7 29.74F Belmar CLOUDY 71 70 96 E9 29.77F $$ PAZ047>061-062-071-240900- EASTERN PENNSYLVANIA CITY SKY/WX TMP DP RH WIND PRES REMARKS Philadelphia LGT RAIN 72 70 93 SE8 29.76S Allentown LGT RAIN 70 66 87 E14 29.75F FOG Scranton HVY RAIN 67 66 97 VRB6 29.80R FOG $$ CTZ002-004>006-009-010-012-RIZ004-006-007-MAZ004-011-015-240900- SOUTHERN NEW ENGLAND IN CT CITY SKY/WX TMP DP RH WIND PRES REMARKS Bradley INTL CLOUDY 65 57 75 E5 29.88F Hartford CLOUDY 67 55 65 E6 29.87F Danbury CLOUDY 65 60 84 NE8 29.86F Wtrbury/Oxford CLOUDY 64 54 68 SE7 29.86S Bridgeport LGT RAIN 69 64 84 E20 29.84F Meriden CLOUDY 66 57 72 CALM 29.87F New Haven CLOUDY 68 61 78 E13G23 29.85F Chester LGT RAIN 64 59 82 E6G13 29.88S Groton LGT RAIN 66 58 75 E12 29.87F Wilimantic LGT RAIN 67 58 72 E3 29.90F IN RI CITY SKY/WX TMP DP RH WIND PRES REMARKS Providence CLOUDY 65 59 81 NE7 29.92S Block Island CLOUDY 66 58 75 E13G22 29.88F Westerly CLOUDY 67 56 67 E12 29.89F IN MA CITY SKY/WX TMP DP RH WIND PRES REMARKS Boston CLOUDY 64 59 83 E6 29.93F Worcester LGT RAIN 61 52 72 E6 29.93F Westfield CLOUDY 65 58 78 CALM 29.89F Provincetown CLOUDY 65 54 67 E7 29.95R Nantucket CLOUDY 63 49 60 E15 29.90F $$ ANZ330-335-338-340-345-350-353-355-240900- COASTAL MARINE OBSERVATIONS STATION/POSITION TIME SKY/WX TEMP WIND PRES VSBY WAVE AIR SEA DIR/SP/G HT/PER (UTC) (F) (DEG/KT/KT) (MB) (MI) (FT/S) NY HARB ENTRANCE 0650 73 75 100/ 17/ 19 1008.4 4/ 5 20 S FIRE ISLAND 0750 73 76 100/ 19/ 21 1008.0 5/ 5 GREAT SOUTH BAY 0730 73 81 90/ 17/ 19 N/A 23 SSW MONTAUK P 0650 71 74 1010.9 5/ 5 15 E BARNEGAT LI 0730 75 N/A 5/ 5 HUDSON CANYON 0650 75 78 100/ 17/ 21 1007.5 5/ 7 KINGS POINT 0736 70 72 90/ 3/ 5 1009.0 EXECUTION ROCKS 0745 71 90/ 12/ 16 N/A CENTRAL LI SOUND 0715 69 80/ 17/ 19 N/A 2 EASTERN LI SOUND NOT AVBL ROBBINS REEF 0736 100/ 18/ 21 1009.2 $$ >>>>>>>>>>>>>>>>>>>>>>>>>>>> KEY <<<<<<<<<<<<<<<<<<<<<<<<<<< > < > SKY/WX - Sky Condition/Present Weather < > TMP - Temperature in Fahrenheit < > DP - Dew Point in Fahrenheit < > RH - Relative Humidity in Percent < > WIND - Direction (from) and Speed in MPH < > PRES - Mean Sea Level Pressure (inches of Hg) < > WCI - Wind Chill Index < > VSB - VISIBILITY IN MILES < > HX - HEAT INDEX < > TC - TEMPERATURE IN CELSIUS < > VRB - VARIABLE WIND DIRECTION < > < >>>>>>>>>>>>>>>>>>>>>>>>>>>> KEY <<<<<<<<<<<<<<<<<<<<<<<<<<<

USA.gov is the U.S. government's official web portal to all federal, state and local government web resources and services.